TimeEDT,TemperatureF,Dew PointF,Humidity,Sea Level PressureIn,VisibilityMPH,Wind Direction,Wind SpeedMPH,Gust SpeedMPH,PrecipitationIn,Events,Conditions,WindDirDegrees,DateUTC
1:53 AM,55.9,52.0,87,30.28,10.0,NE,4.6,-,N/A,,Clear,50,2012-10-14 05:53:00
2:53 AM,57.0,51.1,81,30.26,10.0,ENE,3.5,-,N/A,,Clear,60,2012-10-14 06:53:00
3:53 AM,55.9,51.1,84,30.25,10.0,Calm,Calm,-,N/A,,Clear,0,2012-10-14 07:53:00
4:53 AM,55.9,50.0,80,30.24,10.0,NNE,4.6,-,N/A,,Clear,30,2012-10-14 08:53:00
5:53 AM,55.9,50.0,80,30.22,10.0,ENE,3.5,-,N/A,,Clear,60,2012-10-14 09:53:00
6:53 AM,55.0,51.1,86,30.23,10.0,North,3.5,-,N/A,,Clear,10,2012-10-14 10:53:00
7:53 AM,57.0,52.0,83,30.25,10.0,Calm,Calm,-,N/A,,Clear,0,2012-10-14 11:53:00
8:53 AM,60.1,54.0,80,30.26,10.0,NE,4.6,-,N/A,,Clear,40,2012-10-14 12:53:00
9:53 AM,64.0,57.0,78,30.25,10.0,NE,4.6,-,N/A,,Clear,40,2012-10-14 13:53:00
10:53 AM,71.1,59.0,66,30.25,10.0,Variable,4.6,-,N/A,,Clear,0,2012-10-14 14:53:00
11:53 AM,75.0,61.0,62,30.22,10.0,East,8.1,-,N/A,,Clear,100,2012-10-14 15:53:00
12:53 PM,78.1,60.1,54,30.21,10.0,SE,3.5,-,N/A,,Overcast,130,2012-10-14 16:53:00
1:53 PM,81.0,59.0,47,30.17,10.0,SE,5.8,-,N/A,,Scattered Clouds,140,2012-10-14 17:53:00
2:53 PM,80.1,60.1,50,30.14,10.0,SSE,4.6,-,N/A,,Overcast,150,2012-10-14 18:53:00
3:53 PM,80.1,60.1,50,30.12,10.0,Calm,Calm,-,N/A,,Overcast,0,2012-10-14 19:53:00
4:53 PM,80.1,61.0,52,30.10,10.0,SE,5.8,-,N/A,,Mostly Cloudy,140,2012-10-14 20:53:00
5:53 PM,79.0,62.1,56,30.09,10.0,ESE,4.6,-,N/A,,Scattered Clouds,120,2012-10-14 21:53:00
6:53 PM,75.0,61.0,62,30.09,10.0,Calm,Calm,-,N/A,,Mostly Cloudy,0,2012-10-14 22:53:00
7:53 PM,73.9,60.1,62,30.09,10.0,ESE,4.6,-,N/A,,Overcast,110,2012-10-14 23:53:00
8:53 PM,70.0,64.0,81,30.10,10.0,SW,4.6,-,0.00,,Overcast,220,2012-10-15 00:53:00
9:53 PM,70.0,66.0,87,30.09,10.0,Calm,Calm,-,N/A,,Overcast,0,2012-10-15 01:53:00
10:53 PM,69.1,66.0,90,30.08,10.0,Calm,Calm,-,N/A,,Overcast,0,2012-10-15 02:53:00
11:53 PM,68.0,64.9,90,30.04,10.0,SE,4.6,-,N/A,,Partly Cloudy,140,2012-10-15 03:53:00